Le nostre stazioni meteo in Italia

Pubblicità
Il mio iltempo24.it
Geneve-Cointrin, Svizzera (6700): Temperatura & dewpoint: 14.10.2017 09:00:00 - 20.10.2017 09:00:00 (CEST)Geneve-Cointrin, Svizzera (6700): Temperatura 5cm: 14.10.2017 09:00:00 - 20.10.2017 09:00:00 (CEST)Geneve-Cointrin, Svizzera (6700): velocità del vento & gusts: 14.10.2017 09:00:00 - 20.10.2017 09:00:00 (CEST)Geneve-Cointrin, Svizzera (6700): direzione del vento: 14.10.2017 09:00:00 - 20.10.2017 09:00:00 (CEST)Geneve-Cointrin, Svizzera (6700): reduced air pressure: 14.10.2017 09:00:00 - 20.10.2017 09:00:00 (CEST)Geneve-Cointrin, Svizzera (6700): visibility: 14.10.2017 09:00:00 - 20.10.2017 09:00:00 (CEST)Geneve-Cointrin, Svizzera (6700): ore di luce: 14.10.2017 09:00:00 - 20.10.2017 09:00:00 (CEST)Geneve-Cointrin, Svizzera (6700): precipitazioni: 14.10.2017 09:00:00 - 20.10.2017 09:00:00 (CEST)
Data & Tempo tt [°C] td [°C] tt 5cm [°C] ff [km/h] ff [kn] fx [km/h] fx [kn] dd ppp [hPa] vv [km] sd [min] rr [mm]
20.10.2017 09:00:00 - - - - - - - - - - - -
20.10.2017 08:00:00 7,9 6,4 6,3 6 3 10 5 ONO 1017,8 16 0 0,0
20.10.2017 07:00:00 7,3 6,6 5,0 3 2 11 6 S 1017,7 - 0 0,0
20.10.2017 06:00:00 7,3 6,3 3,9 3 2 8 4 ONO 1017,4 - 0 0,0
20.10.2017 05:00:00 7,6 6,8 5,3 5 3 8 4 O 1017,4 - 0 0,0
20.10.2017 04:00:00 8,4 6,9 6,8 4 2 7 4 O 1017,0 - 0 0,0
20.10.2017 03:00:00 7,9 6,6 5,8 3 2 6 3 SO 1017,0 - 0 0,0
20.10.2017 02:00:00 7,5 6,7 4,9 1 1 6 3 SO 1016,4 - 0 0,0
20.10.2017 01:00:00 8,4 7,2 5,2 2 1 5 3 NNO 1015,8 - 0 0,0
20.10.2017 00:00:00 9,7 7,3 5,9 3 1 6 4 OSO 1015,7 - 0 0,0
19.10.2017 23:00:00 10,1 7,8 6,5 1 0 6 3 NNE 1015,7 20 0 0,0
19.10.2017 22:00:00 11,1 8,3 7,2 1 1 6 4 NE 1015,1 - 0 0,0
19.10.2017 21:00:00 12,6 8,5 8,8 5 3 7 4 NO 1014,2 - 0 0,0
19.10.2017 20:00:00 13,9 8,0 9,5 1 0 7 4 SSE 1013,5 20 0 0,0
19.10.2017 19:00:00 15,4 7,4 11,6 1 1 10 5 OSO 1012,8 - 0 0,0
19.10.2017 18:00:00 18,8 6,9 19,1 1 1 12 7 N 1012,0 - 50 0,0
19.10.2017 17:00:00 19,0 6,5 20,3 8 4 14 7 E 1011,9 20 48 0,0
19.10.2017 16:00:00 20,3 6,1 27,8 4 2 11 6 N 1011,8 - 58 0,0
19.10.2017 15:00:00 19,7 7,9 25,7 5 3 15 8 E 1012,3 - 50 0,0
19.10.2017 14:00:00 18,5 7,1 23,1 5 3 14 8 NE 1013,2 19 4 0,0
19.10.2017 13:00:00 16,4 8,0 19,2 5 3 11 6 NE 1014,5 - 14 0,0
19.10.2017 12:00:00 16,6 8,3 22,5 5 3 16 9 E 1015,0 - 60 0,0
19.10.2017 11:00:00 14,5 7,7 20,1 1 1 7 4 SE 1015,6 19 42 0,0
19.10.2017 10:00:00 12,3 9,3 12,8 4 2 7 4 NE 1016,2 - 6 0,0
19.10.2017 09:00:00 10,4 8,2 9,4 2 1 4 2 NNE 1016,5 - 0 0,0
19.10.2017 08:00:00 8,2 7,3 5,9 4 2 8 5 NNO 1016,3 11 0 0,0
19.10.2017 07:00:00 8,4 7,3 6,8 3 2 6 3 OSO 1015,9 - 0 0,0
19.10.2017 06:00:00 8,1 7,6 6,1 2 1 8 4 NO 1015,6 - 0 0,0
19.10.2017 05:00:00 8,2 7,6 4,9 1 1 5 3 NNO 1016,1 - 0 0,0
19.10.2017 04:00:00 9,4 8,2 7,2 3 1 4 2 O 1015,9 - 0 0,0
19.10.2017 03:00:00 9,0 8,4 6,5 3 2 6 4 ONO 1016,3 - 0 0,0
19.10.2017 02:00:00 10,6 8,8 8,2 2 1 5 3 OSO 1015,8 - 0 0,0
19.10.2017 01:00:00 11,3 8,6 9,1 3 2 5 3 NNO 1015,8 - 0 0,0
19.10.2017 00:00:00 12,1 9,0 11,0 4 2 6 3 NNO 1015,9 - 0 0,0
18.10.2017 23:00:00 11,9 8,6 9,9 2 1 5 3 N 1016,2 25 0 0,0
18.10.2017 22:00:00 12,1 8,3 8,4 4 2 7 4 O 1015,5 - 0 0,0
18.10.2017 21:00:00 12,2 7,7 8,3 2 1 6 4 N 1015,3 - 0 0,0
18.10.2017 20:00:00 13,8 7,3 9,9 4 2 8 4 NNE 1014,8 25 0 0,0
18.10.2017 19:00:00 16,0 7,9 12,3 6 3 11 6 NNE 1014,1 - 9 0,0
18.10.2017 18:00:00 18,1 8,4 18,5 6 4 14 8 NNE 1013,5 - 60 0,0
18.10.2017 17:00:00 19,3 9,9 22,8 8 4 16 9 ENE 1013,5 30 59 0,0
18.10.2017 16:00:00 20,2 9,1 24,9 9 5 16 9 E 1013,8 - 59 0,0
18.10.2017 15:00:00 20,0 8,0 26,2 5 3 13 7 ENE 1014,3 - 60 0,0
18.10.2017 14:00:00 18,5 8,2 24,9 10 6 18 10 ENE 1015,4 18 60 0,0
18.10.2017 13:00:00 18,2 8,5 24,6 3 2 13 7 OSO 1016,5 - 60 0,0
18.10.2017 12:00:00 15,8 7,9 22,2 6 4 13 7 E 1017,5 - 60 0,0
18.10.2017 11:00:00 14,4 8,8 20,6 3 2 9 5 N 1018,1 17 60 0,0
18.10.2017 10:00:00 12,4 9,2 15,9 3 2 5 3 NNE 1018,8 - 60 0,0
18.10.2017 09:00:00 7,7 6,8 5,7 3 2 8 4 NNO 1019,7 - 1 0,0
18.10.2017 08:00:00 6,5 5,8 3,0 2 1 8 4 N 1019,9 12 0 0,0
18.10.2017 07:00:00 6,1 5,2 3,6 4 2 8 4 ONO 1020,2 - 0 0,0
18.10.2017 06:00:00 5,6 4,7 3,0 2 1 7 4 O 1020,4 - 0 0,0
18.10.2017 05:00:00 6,3 5,7 3,0 1 1 9 5 S 1020,5 - 0 0,0
18.10.2017 04:00:00 6,9 5,5 3,6 3 1 4 2 SO 1020,6 - 0 0,0
18.10.2017 03:00:00 6,6 5,9 4,4 4 2 6 3 ONO 1020,9 - 0 0,0
18.10.2017 02:00:00 7,6 6,6 4,8 3 2 9 5 O 1021,0 - 0 0,0
18.10.2017 01:00:00 7,7 6,7 4,7 2 1 4 2 OSO 1021,1 - 0 0,0
18.10.2017 00:00:00 8,9 7,2 5,6 4 2 6 3 OSO 1021,0 - 0 0,0
17.10.2017 23:00:00 10,1 7,7 6,7 3 1 6 3 ONO 1021,1 20 0 0,0
17.10.2017 22:00:00 11,5 8,5 7,6 3 1 5 3 NO 1020,8 - 0 0,0
17.10.2017 21:00:00 11,0 9,1 7,5 3 2 5 3 SSO 1020,9 - 0 0,0
17.10.2017 20:00:00 12,5 9,4 8,4 1 1 6 3 NNO 1020,8 25 0 0,0
17.10.2017 19:00:00 14,7 9,9 10,8 3 2 12 6 NE 1020,2 - 16 0,0
17.10.2017 18:00:00 17,8 9,7 19,5 5 3 13 7 E 1019,7 - 60 0,0
17.10.2017 17:00:00 19,6 9,3 24,0 6 3 13 7 E 1019,9 25 60 0,0
17.10.2017 16:00:00 20,1 8,7 26,1 5 3 16 8 E 1020,3 - 60 0,0
17.10.2017 15:00:00 19,7 8,7 26,6 5 3 12 7 ENE 1021,2 - 60 0,0
17.10.2017 14:00:00 19,0 8,3 26,6 4 2 13 7 ESE 1022,5 20 60 0,0
17.10.2017 13:00:00 17,6 6,8 - 5 3 12 7 NE 1023,8 - 60 0,0
17.10.2017 12:00:00 15,6 8,4 21,5 4 2 9 5 ENE 1024,9 - 60 0,0
17.10.2017 11:00:00 13,6 9,0 19,7 1 1 6 3 OSO 1025,9 20 60 0,0
17.10.2017 10:00:00 11,3 8,5 15,1 1 0 4 2 ONO 1026,7 - 59 0,0
17.10.2017 09:00:00 7,8 6,6 - 2 1 6 3 ONO 1027,3 - 1 0,0
17.10.2017 08:00:00 6,1 5,2 3,3 2 1 6 4 OSO 1027,6 20 0 0,0
17.10.2017 07:00:00 6,2 5,3 2,8 4 2 8 4 NO 1027,6 - 0 0,0
17.10.2017 06:00:00 6,5 5,7 3,8 5 3 6 3 ONO 1027,6 - 0 0,0
17.10.2017 05:00:00 6,4 5,5 3,6 2 1 5 3 NO 1027,6 - 0 0,0
17.10.2017 04:00:00 7,3 6,1 3,7 1 1 11 6 O 1027,7 - 0 0,0
17.10.2017 03:00:00 7,2 6,1 4,7 5 3 17 9 ONO 1028,1 - 0 0,0
17.10.2017 02:00:00 7,9 7,0 4,9 4 2 14 7 E 1028,1 - 0 0,0
17.10.2017 01:00:00 8,1 7,1 5,0 4 2 8 5 N 1028,1 - 0 0,0
17.10.2017 00:00:00 8,8 7,6 5,9 3 1 4 2 NO 1028,1 - 0 0,0
16.10.2017 23:00:00 9,9 8,3 6,6 3 2 6 4 N 1027,7 20 0 0,0
16.10.2017 22:00:00 11,5 9,5 7,4 4 2 8 4 SO 1027,1 - 0 0,0
16.10.2017 21:00:00 13,0 9,4 8,2 4 2 6 3 ONO 1026,7 - 0 0,0
16.10.2017 20:00:00 14,2 9,9 9,1 2 1 7 4 N 1026,3 25 0 0,0
16.10.2017 19:00:00 16,1 11,0 11,4 5 3 10 5 N 1025,6 - 25 0,0
16.10.2017 18:00:00 18,6 10,9 20,2 7 4 13 7 E 1024,9 - 60 0,0
16.10.2017 17:00:00 21,3 11,3 24,9 7 4 15 8 E 1024,6 25 60 0,0
16.10.2017 16:00:00 21,9 9,7 27,8 6 3 15 8 E 1024,7 - 60 0,0
16.10.2017 15:00:00 20,9 10,0 27,8 7 4 16 9 E 1025,4 - 60 0,0
16.10.2017 14:00:00 20,2 9,6 27,5 7 4 15 8 ENE 1026,1 21 60 0,0
16.10.2017 13:00:00 19,2 10,2 25,6 5 3 11 6 SSE 1027,2 - 60 0,0
16.10.2017 12:00:00 17,5 10,3 24,4 5 3 10 5 NE 1027,7 - 60 0,0
16.10.2017 11:00:00 14,6 9,7 21,2 3 1 7 4 SSO 1028,5 17 60 0,0
16.10.2017 10:00:00 12,0 8,8 15,9 4 2 5 3 SO 1029,1 - 60 0,0
16.10.2017 09:00:00 8,6 7,4 7,8 2 1 5 3 ONO 1029,3 - 2 0,0
16.10.2017 08:00:00 7,0 6,7 4,6 3 2 5 3 NO 1029,2 15 0 0,0
16.10.2017 07:00:00 7,5 7,0 3,8 1 0 5 3 NO 1029,1 - 0 0,0
16.10.2017 06:00:00 7,1 6,4 3,7 1 1 5 3 O 1029,2 - 0 0,0
16.10.2017 05:00:00 7,1 6,7 3,9 0 0 5 3 S 1029,2 - 0 0,0
16.10.2017 04:00:00 8,1 7,6 5,1 2 1 6 3 SSO 1029,2 - 0 0,0
16.10.2017 03:00:00 8,5 7,6 5,3 3 1 4 2 NNO 1029,4 - 0 0,0
16.10.2017 02:00:00 8,5 7,4 6,2 3 1 7 4 SO 1029,4 - 0 0,0
16.10.2017 01:00:00 9,1 8,0 6,6 3 1 8 4 NNO 1029,4 - 0 0,0
16.10.2017 00:00:00 10,3 9,0 7,4 2 1 5 3 SSO 1029,1 - 0 0,0
15.10.2017 23:00:00 11,0 9,7 7,7 2 1 8 4 ONO 1028,7 25 0 0,0
15.10.2017 22:00:00 11,6 9,8 8,2 3 1 5 3 OSO 1028,4 - 0 0,0
15.10.2017 21:00:00 12,4 10,3 8,8 2 1 6 4 N 1028,0 - 0 0,0
15.10.2017 20:00:00 14,3 11,0 10,1 4 2 8 4 N 1027,3 40 0 0,0
15.10.2017 19:00:00 16,3 11,9 12,4 4 2 11 6 ENE 1026,3 - 25 0,0
15.10.2017 18:00:00 19,0 12,1 20,3 6 3 16 9 ESE 1025,4 - 60 0,0
15.10.2017 17:00:00 21,3 10,4 25,7 7 4 14 8 E 1025,0 40 60 0,0
15.10.2017 16:00:00 21,8 9,9 28,5 7 4 16 9 SO 1025,4 - 60 0,0
15.10.2017 15:00:00 20,9 9,7 27,9 6 3 19 10 SO 1025,9 - 60 0,0
15.10.2017 14:00:00 20,2 10,7 27,4 7 4 16 9 S 1026,8 45 60 0,0
15.10.2017 13:00:00 18,6 9,9 25,8 5 3 12 7 S 1027,9 - 60 0,0
15.10.2017 12:00:00 17,4 10,6 23,2 4 2 10 5 SE 1028,5 - 60 0,0
15.10.2017 11:00:00 14,2 10,1 20,6 2 1 6 3 N 1029,5 23 60 0,0
15.10.2017 10:00:00 11,0 8,2 15,1 1 1 4 2 ONO 1030,1 - 60 0,0
15.10.2017 09:00:00 7,4 6,5 7,4 1 1 5 3 NNO 1030,5 - 2 0,0
15.10.2017 08:00:00 6,4 5,8 4,3 4 2 5 3 ONO 1030,0 20 0 0,0
15.10.2017 07:00:00 5,9 5,4 2,9 3 1 8 4 NO 1030,0 - 0 0,0
15.10.2017 06:00:00 6,2 5,7 3,2 2 1 4 2 SO 1030,1 - 0 0,0
15.10.2017 05:00:00 6,2 5,1 3,5 3 2 5 3 NNO 1030,0 - 0 0,0
15.10.2017 04:00:00 6,8 6,5 4,2 4 2 6 3 O 1029,8 - 0 0,0
15.10.2017 03:00:00 7,4 6,5 3,9 2 1 4 2 ONO 1029,9 - 0 0,0
15.10.2017 02:00:00 8,0 7,0 5,0 4 2 5 3 ONO 1029,9 - 0 0,0
15.10.2017 01:00:00 8,5 8,0 5,4 1 1 5 3 OSO 1029,9 - 0 0,0
15.10.2017 00:00:00 9,0 8,4 6,0 0 0 4 2 SSO 1029,6 - 0 0,0
14.10.2017 23:00:00 10,5 9,3 6,9 1 1 4 2 ONO 1029,1 20 0 0,0
14.10.2017 22:00:00 11,8 10,3 7,4 2 1 5 3 NNO 1028,8 - 0 0,0
14.10.2017 21:00:00 11,7 10,3 7,9 1 0 3 2 OSO 1028,6 - 0 0,0
14.10.2017 20:00:00 13,4 11,1 9,3 1 0 4 2 NO 1027,9 20 0 0,0
14.10.2017 19:00:00 15,4 11,2 11,7 2 1 6 3 NE 1026,8 - 28 0,0
14.10.2017 18:00:00 18,6 10,4 20,8 4 2 15 8 ENE 1026,1 - 60 0,0
14.10.2017 17:00:00 20,1 9,1 24,5 6 3 13 7 E 1025,8 20 60 0,0
14.10.2017 16:00:00 20,3 9,8 26,0 5 3 18 10 E 1026,0 - 60 0,0
14.10.2017 15:00:00 19,2 10,1 25,6 8 5 21 11 ENE 1026,6 - 60 0,0
14.10.2017 14:00:00 18,5 9,1 25,0 8 5 17 9 E 1027,4 20 60 0,0
14.10.2017 13:00:00 17,0 9,2 24,4 5 3 15 8 E 1028,4 - 60 0,0
14.10.2017 12:00:00 15,9 8,7 22,3 5 3 13 7 E 1029,0 - 60 0,0
14.10.2017 11:00:00 14,3 9,6 20,9 4 2 8 5 E 1029,6 17 60 0,0
14.10.2017 10:00:00 11,5 9,6 15,0 2 1 5 3 NNE 1029,9 - 60 0,0
14.10.2017 09:00:00 8,3 7,3 7,8 1 1 4 2 NNO 1030,2 - 3 0,0

tt = Temperatura
td = dewpoint
tt 5cm = Temperatura 5cm
ff = velocità del vento
fx = gusts
dd = direzione del vento
ppp = reduced air pressure
vv = visibility
sd = ore di luce
rr = precipitazioni

Stazioni seguenti

WeatherPro
AMSI
MeteoEarth